This is the latest recevied weather packets stored in our database for station/object KM4KBD. If no packets are shown the sender has not sent any weather packets the latest 10 day(s).
| Time | Temp. | Humidity | Pressure | Rain* | Wind** | Luminosity | Snow |
|---|---|---|---|---|---|---|---|
| 1777639542 | 7.78° C | 86% | 1020.4 hPa | 0 mm | - | 48 W/m² | - |
| 1777639238 | 7.78° C | 90% | 1020.2 hPa | 0 mm | - | 48 W/m² | - |
| 1777638935 | 7.22° C | 87% | 1020.4 hPa | 0 mm | - | 48 W/m² | - |
| 1777638630 | 7.22° C | 89% | 1020.3 hPa | 0 mm | - | 45 W/m² | - |
| 1777638327 | 6.67° C | 89% | 1020.3 hPa | 0 mm | - | 56 W/m² | - |
| 1777638023 | 6.67° C | 91% | 1020.3 hPa | 0 mm | - | 43 W/m² | - |
| 1777637720 | 6.11° C | 94% | 1020.3 hPa | 0 mm | - | 39 W/m² | - |
| 1777637416 | 5.56° C | 97% | 1020 hPa | 0 mm | - | 37 W/m² | - |
| 1777637114 | 5° C | 98% | 1020.1 hPa | 0 mm | - | 36 W/m² | - |
| 1777636810 | 4.44° C | 99% | 1020.3 hPa | 0 mm | - | 34 W/m² | - |
| 1777636506 | 3.89° C | 99% | 1020.1 hPa | 0 mm | - | 33 W/m² | - |
| 1777636202 | 3.89° C | 99% | 1020.2 hPa | 0 mm | - | 31 W/m² | - |
| 1777635897 | 3.89° C | 99% | 1020.1 hPa | 0 mm | - | 30 W/m² | - |
| 1777635593 | 3.89° C | 99% | 1020.1 hPa | 0 mm | - | 29 W/m² | - |
| 1777635290 | 3.33° C | 99% | 1020 hPa | 0 mm | - | 27 W/m² | - |
| 1777634987 | 3.33° C | 99% | 1020 hPa | 0 mm | - | 25 W/m² | - |
| 1777634683 | 3.33° C | 99% | 1020.1 hPa | 0 mm | - | 23 W/m² | - |
| 1777634381 | 3.33° C | 99% | 1020 hPa | 0 mm | - | 21 W/m² | - |
| 1777634078 | 3.33° C | 99% | 1020 hPa | 0 mm | - | 17 W/m² | - |
| 1777633774 | 3.89° C | 99% | 1020.1 hPa | 0 mm | - | 14 W/m² | - |
| 1777633472 | 3.33° C | 99% | 1020.1 hPa | 0 mm | - | 12 W/m² | - |
| 1777633170 | 3.33° C | 99% | 1019.9 hPa | 0 mm | - | 9 W/m² | - |
| 1777632866 | 2.78° C | 99% | 1020 hPa | 0 mm | - | 7 W/m² | - |
| 1777632562 | 2.78° C | 99% | 1020.1 hPa | 0 mm | - | 5 W/m² | - |
| 1777632260 | 2.78° C | 99% | 1020.1 hPa | 0 mm | - | 3 W/m² | - |
* Rain latest hour (hover to see other rain measurements)
** Current wind speed in m/s (hover to see current wind gust speed)